Weather in Ashdod

Israel     31°48′26″N   34°39′31″E
temp.,
°C
wind,
m/s
gust,
m/s
humid.,
%
clouds,
%
prec.,
mm/h
press.,
hPa
HPBL,
m
24 january, mon
mon2423:00+10se228999 1.4 1018126
02:00+10ssw597735 2.9 1017254
05:00+10sw81379100 0.6 1017487
08:00+10w3586100 4.7 1020268
11:00+10wnw2579100 2.2 1021270
14:00+10nnw3482100 3.7 1021313
17:00+9e3380100 1.3 1022142
20:00+8ese458124 1.4 102389
25 january, tue
tue2523:00+8ese337714 0.0 102347
02:00+7sse22775 0.0 102223
05:00+7se22750 0.0 102129
08:00+9sse35720 0.0 1021129
11:00+13ssw66551 0.0 10211317
14:00+13sw675465 0.0 10191586
17:00+10sw45632 0.0 1019140
20:00+9sse34592 0.0 102080
26 january, wed
wed2623:00+8sse46585 0.0 101980
02:00+8s4868100 0.1 1018160
05:00+8s510728 0.4 1017245
08:00+9ssw6117110 0.5 1017398
11:00+12sw10135861 0.1 10161745
14:00+9w12158495 3.5 10151377
17:00+9w91377100 4.5 1015852
20:00+9w121666100 7.9 1017659
27 january, thu
thu2723:00+9wsw121668100 4.4 1016789
02:00+9w13176987 7.9 1016784
05:00+10wnw11156187 1.8 1017552
08:00+10wnw9136381 3.3 1020527
11:00+13wnw7105356 0.8 10212005
14:00+13w9116238 2.1 10201620
17:00+11w8116999 0.9 1021322
20:00+11w7107169 2.0 1022279
28 january, fri
fri2823:00+11w587399 1.1 1022213
02:00+11w587283 2.8 1022243
05:00+10w587644 1.1 1023224
08:00+11sw467885 2.1 1024284
11:00+13wsw686841 1.6 10251179
14:00+13w5769100 3.4 10231053
17:00+12wnw5770100 1.0 1023238
20:00+12wnw4670100 1.8 1024177